Weather reports worldwide

Advertisment
Gogerddan, United Kingdom (99150): temperature & dewpoint: 12.08.2017 00:00:00 - 18.08.2017 00:00:00 (BST)Gogerddan, United Kingdom (99150): temperature -20cm & temperature -100cm: 12.08.2017 00:00:00 - 18.08.2017 00:00:00 (BST)Gogerddan, United Kingdom (99150): wind speed: 12.08.2017 00:00:00 - 18.08.2017 00:00:00 (BST)Gogerddan, United Kingdom (99150): wind direction: 12.08.2017 00:00:00 - 18.08.2017 00:00:00 (BST)Gogerddan, United Kingdom (99150): visibility: 12.08.2017 00:00:00 - 18.08.2017 00:00:00 (BST)Gogerddan, United Kingdom (99150): precipitation: 12.08.2017 00:00:00 - 18.08.2017 00:00:00 (BST)
Date & Time tt [°C] td [°C] tt -20cm [°C] tt -100cm [°C] ff [km/h] ff [kn] dd vv [km] rr [mm]
18.08.2017 00:00:00 - - - - - - - - 0,0
17.08.2017 23:00:00 15,3 12,6 - - - - - - 0,0
17.08.2017 22:00:00 15,0 12,2 - - - - - - 0,0
17.08.2017 21:00:00 15,3 11,8 - - - - - - 0,0
17.08.2017 20:00:00 16,9 13,0 - - - - - - 0,0
17.08.2017 19:00:00 17,8 13,9 - - - - - - 0,0
17.08.2017 18:00:00 17,5 14,7 - - - - - - 0,0
17.08.2017 17:00:00 18,4 14,9 - - - - - - 0,0
17.08.2017 16:00:00 18,6 14,7 - - - - - - 0,0
17.08.2017 15:00:00 19,6 14,9 - - - - - - 0,0
17.08.2017 14:00:00 17,6 13,7 - - - - - - 0,0
17.08.2017 13:00:00 18,9 13,3 - - - - - - 0,0
17.08.2017 12:00:00 17,9 13,6 - - - - - - 0,0
17.08.2017 11:00:00 16,4 13,4 - - - - - - 0,0
17.08.2017 10:00:00 16,2 14,7 15,5 15,0 - - - 10 0,0
17.08.2017 09:00:00 15,2 14,7 - - - - - - 0,0
17.08.2017 08:00:00 15,7 15,2 - - - - - - 0,0
17.08.2017 07:00:00 15,8 15,5 - - - - - - 0,4
17.08.2017 06:00:00 16,2 15,8 - - - - - - 4,0
17.08.2017 05:00:00 16,0 15,7 - - - - - - 0,8
17.08.2017 04:00:00 15,8 15,4 - - - - - - 0,6
17.08.2017 03:00:00 15,9 15,1 - - - - - - 0,4
17.08.2017 02:00:00 15,7 14,9 - - - - - - 5,4
17.08.2017 01:00:00 15,5 14,4 - - - - - - 4,6
17.08.2017 00:00:00 15,3 13,9 - - - - - - 3,4
16.08.2017 23:00:00 15,1 13,2 - - - - - - 1,0
16.08.2017 22:00:00 15,4 12,7 - - - - - - 0,0
16.08.2017 21:00:00 15,1 12,7 - - - - - - 0,2
16.08.2017 20:00:00 14,8 13,0 - - - - - - 3,0
16.08.2017 19:00:00 15,8 13,6 - - - - - - 1,4
16.08.2017 18:00:00 17,2 13,5 - - - - - - 0,0
16.08.2017 17:00:00 17,3 13,3 - - - - - - 0,0
16.08.2017 16:00:00 17,7 13,1 - - - - - - 0,0
16.08.2017 15:00:00 18,4 12,3 - - - - - - 0,0
16.08.2017 14:00:00 18,2 12,5 - - - - - - 0,0
16.08.2017 13:00:00 17,9 12,5 - - - - - - 0,0
16.08.2017 12:00:00 17,6 12,8 - - - - - - 0,0
16.08.2017 11:00:00 17,1 11,9 - - - - - - 0,0
16.08.2017 10:00:00 16,6 12,7 15,5 15,0 4 2 N 6 0,0
16.08.2017 09:00:00 14,9 12,2 - - - - - - 0,0
16.08.2017 08:00:00 14,0 12,1 - - - - - - 0,0
16.08.2017 07:00:00 12,5 11,7 - - - - - - 0,0
16.08.2017 06:00:00 11,8 11,4 - - - - - - 0,0
16.08.2017 05:00:00 10,3 10,0 - - - - - - 0,0
16.08.2017 04:00:00 9,9 9,5 - - - - - - 0,0
16.08.2017 03:00:00 10,0 9,6 - - - - - - 0,0
16.08.2017 02:00:00 9,6 9,1 - - - - - - 0,0
16.08.2017 01:00:00 9,9 9,2 - - - - - - 0,0
16.08.2017 00:00:00 10,6 9,7 - - - - - - 0,0
15.08.2017 23:00:00 11,6 10,4 - - - - - - 0,0
15.08.2017 22:00:00 12,9 11,1 - - - - - - 0,0
15.08.2017 21:00:00 14,3 11,1 - - - - - - 0,0
15.08.2017 20:00:00 15,4 10,9 - - - - - - 0,0
15.08.2017 19:00:00 16,5 12,3 - - - - - - 0,0
15.08.2017 18:00:00 17,6 12,2 - - - - - - 0,0
15.08.2017 17:00:00 17,7 12,6 - - - - - - 0,0
15.08.2017 16:00:00 17,3 11,7 - - - - - - 0,0
15.08.2017 15:00:00 17,5 13,1 - - - - - - 0,0
15.08.2017 14:00:00 18,0 13,8 - - - - - - 0,0
15.08.2017 13:00:00 17,0 12,7 - - - - - - 0,0
15.08.2017 12:00:00 17,1 12,7 - - - - - - 0,0
15.08.2017 11:00:00 16,6 12,8 - - - - - - 0,0
15.08.2017 10:00:00 15,6 12,7 15,5 15,0 - - - 10 0,0
15.08.2017 09:00:00 15,1 12,4 - - - - - - 0,0
15.08.2017 08:00:00 14,7 12,4 - - - - - - 0,0
15.08.2017 07:00:00 13,8 11,7 - - - - - - 0,0
15.08.2017 06:00:00 14,2 12,4 - - - - - - 0,0
15.08.2017 05:00:00 14,5 12,9 - - - - - - 0,0
15.08.2017 04:00:00 15,0 13,8 - - - - - - 0,0
15.08.2017 03:00:00 14,6 13,6 - - - - - - 0,0
15.08.2017 02:00:00 14,9 13,5 - - - - - - 0,0
15.08.2017 01:00:00 15,4 14,4 - - - - - - 1,4
15.08.2017 00:00:00 15,3 14,1 - - - - - - 0,2
14.08.2017 23:00:00 15,4 14,5 - - - - - - 0,6
14.08.2017 22:00:00 15,4 14,6 - - - - - 10 1,2
14.08.2017 21:00:00 15,3 14,8 - - - - - - 1,0
14.08.2017 20:00:00 15,2 14,6 - - - - - - 3,0
14.08.2017 19:00:00 15,6 14,5 - - - - - - 2,2
14.08.2017 18:00:00 15,8 14,9 - - - - - - 3,4
14.08.2017 17:00:00 16,0 14,8 - - - - - - 5,4
14.08.2017 16:00:00 16,2 14,4 - - - - - - 1,0
14.08.2017 15:00:00 16,7 13,8 - - - - - - 0,0
14.08.2017 14:00:00 17,1 14,1 - - - - - - 0,0
14.08.2017 13:00:00 16,2 14,0 - - - - - - 0,8
14.08.2017 12:00:00 15,5 13,0 - - - - - - 0,2
14.08.2017 11:00:00 15,2 12,0 - - - - - - 0,2
14.08.2017 10:00:00 14,6 11,8 15,4 15,0 65 35 N 23 0,0
14.08.2017 09:00:00 14,4 11,7 - - - - - - 0,0
14.08.2017 08:00:00 13,9 11,9 - - - - - - 0,0
14.08.2017 07:00:00 13,6 11,3 - - - - - - 0,0
14.08.2017 06:00:00 13,4 11,7 - - - - - - 0,4
14.08.2017 05:00:00 13,4 12,1 - - - - - - 1,4
14.08.2017 04:00:00 13,1 11,8 - - - - - - 1,2
14.08.2017 03:00:00 13,7 10,8 - - - - - - 0,0
14.08.2017 02:00:00 13,1 11,1 - - - - - - 0,0
14.08.2017 01:00:00 12,8 10,7 - - - - - - 0,0
14.08.2017 00:00:00 12,8 10,5 - - - - - - 0,0
13.08.2017 23:00:00 13,3 11,1 - - - - - - 0,0
13.08.2017 22:00:00 14,4 11,6 - - - - - - 0,0
13.08.2017 21:00:00 14,7 11,4 - - - - - - 0,0
13.08.2017 20:00:00 15,0 11,2 - - - - - - 0,0
13.08.2017 19:00:00 16,7 9,6 - - - - - - 0,0
13.08.2017 18:00:00 18,1 7,4 - - - - - - 0,0
13.08.2017 17:00:00 17,6 10,7 - - - - - - 0,0
13.08.2017 16:00:00 18,3 10,3 - - - - - - 0,0
13.08.2017 15:00:00 18,2 10,1 - - - - - - 0,0
13.08.2017 14:00:00 18,1 11,2 - - - - - - 0,0
13.08.2017 13:00:00 18,2 11,9 - - - - - - 0,0
13.08.2017 12:00:00 17,8 11,9 - - - - - - 0,0
13.08.2017 11:00:00 18,6 9,9 - - - - - - 0,0
13.08.2017 10:00:00 16,3 10,6 15,4 15,0 - - - - 0,0
13.08.2017 09:00:00 13,1 11,9 - - - - - - 0,0
13.08.2017 08:00:00 10,8 10,2 - - - - - - 0,0
13.08.2017 07:00:00 8,1 7,8 - - - - - - 0,0
13.08.2017 06:00:00 7,2 6,8 - - - - - - 0,0
13.08.2017 05:00:00 7,9 7,5 - - - - - - 0,0
13.08.2017 04:00:00 8,2 7,7 - - - - - - 0,0
13.08.2017 03:00:00 9,0 8,6 - - - - - - 0,0
13.08.2017 02:00:00 9,0 8,4 - - - - - - 0,0
13.08.2017 01:00:00 8,9 8,0 - - - - - - 0,0
13.08.2017 00:00:00 10,7 9,8 - - - - - - 0,0
12.08.2017 23:00:00 11,8 10,5 - - - - - - 0,0
12.08.2017 22:00:00 13,7 11,8 - - - - - - 0,0
12.08.2017 21:00:00 14,5 11,4 - - - - - - 0,0
12.08.2017 20:00:00 15,1 12,3 - - - - - - 0,0
12.08.2017 19:00:00 15,8 12,5 - - - - - - 0,0
12.08.2017 18:00:00 16,0 12,6 - - - - - - 0,0
12.08.2017 17:00:00 17,0 12,9 - - - - - - 0,0
12.08.2017 16:00:00 17,3 12,8 - - - - - - 0,0
12.08.2017 15:00:00 17,0 13,0 - - - - - - 0,0
12.08.2017 14:00:00 16,2 12,2 - - - - - - 0,0
12.08.2017 13:00:00 15,6 12,5 - - - - - - 0,0
12.08.2017 12:00:00 15,7 12,7 - - - - - - 0,0
12.08.2017 11:00:00 15,4 12,6 - - - - - - 0,0
12.08.2017 10:00:00 15,0 11,7 15,5 15,0 80 43 N 3,9 0,0
12.08.2017 09:00:00 15,2 11,4 - - - - - - 0,0
12.08.2017 08:00:00 14,7 10,8 - - - - - - 0,0
12.08.2017 07:00:00 14,6 11,2 - - - - - - 0,0
12.08.2017 06:00:00 14,6 11,5 - - - - - - 0,0
12.08.2017 05:00:00 14,7 11,6 - - - - - - 0,0
12.08.2017 04:00:00 14,8 12,4 - - - - - - 0,0
12.08.2017 03:00:00 15,3 12,2 - - - - - - 0,0
12.08.2017 02:00:00 15,9 13,3 - - - - - - 0,0
12.08.2017 01:00:00 15,9 14,9 - - - - - - 0,0
12.08.2017 00:00:00 15,8 15,2 - - - - - - 0,0

tt = temperature
td = dewpoint
tt -20cm = temperature -20cm
tt -100cm = temperature -100cm
ff = wind speed
dd = wind direction
vv = visibility
rr = precipitation

Next stations